Featured Flight

MET2096 - Chicago to Boston

Embraer ERJ-170LR
N922AG
2 hrs 00 mins
752 nm
Scheduled - Daily

Bid/PiRep Status

Bid was submitted on Jan 05 2017.

PiRep # 74617: Approved by Sean Doyle on January 6th, 2017 3:55 UTC

Departure

Departing from
Chicago (ORD)
Departure gate
Scheduled Departure
GMT 1400
Local 0800
METAR KORD 220603Z 19005KT 5SM BR BKN030 BKN036 11/10 A2984 RMK AO2 T01110100
TAF KORD 220540Z 2206/2312 21004KT 4SM BR BKN025 TEMPO 2206/2209 BKN003 FM220900 21004KT 2SM BR BKN003 FM221430 21010KT P6SM SCT005 FM221800 20015G25KT P6SM SKC FM222300 24010KT P6SM SKC FM230700 29008KT P6SM SCT250
  • No charts available

Arrival

Arriving at
Boston (BOS)
Arrival gate
Scheduled Arrival
GMT 1600
Local 1100
METAR KBOS 220554Z 21010KT 10SM FEW090 OVC130 03/M01 A3009 RMK AO2 SLP189 T00331006 10044 20028 57024
TAF KBOS 220522Z 2206/2312 21007KT P6SM BKN120 FM221500 19004KT P6SM SCT250 FM230300 24004KT P6SM SCT040

Route Map

Planning Resources

MOPER J30 ESL J34 DRUZZ RAVNN3 CSN GRAPA VOLEY DENII JANNS SEVRN GRAFE FIX 25
MOPER J30 ESL J34 DRUZZ RAVNN3 CSN CATAY TERPZ BMORE FND KEVVN TATTO FIX 25
GSH ASHEN MAYZE DJB LIVER AVERE IHD IHD53 BUFFR
GIJ J146 WOOST J34 AIR MGW LIZIO MUMSY MRB RUANE EMI STRPS DEDLE EDMEF
KMDW OXI FWA APE BUCKO ESL TRIXY AML KBWI
Route:
OFP Layout:
Units:
Detailed Navlog:
ETOPS Planning:
Plan Stepclimbs:
Runway Analysis:
Include NOTAMS:
FIR NOTAMS:
Flight Maps:

Return Flights

MET125
Boeing 777-300ER
1530 GMT
MET687
Airbus A319-131
2355 GMT
MET2081
Embraer ERJ-170LR
1430 GMT
MET2083
Embraer ERJ-170LR
1930 GMT
MET2085
Embraer ERJ-170LR
0030 GMT
MET2087
Embraer ERJ-170LR
0530 GMT
MET2091
Embraer ERJ-170LR
2030 GMT
MET2093
Embraer ERJ-170LR
0130 GMT
MET2095
Embraer ERJ-170LR
0630 GMT
MET2097
Embraer ERJ-170LR
1630 GMT
MET2099
Embraer ERJ-170LR
2130 GMT
MET3001
Embraer ERJ-170LR
0230 GMT
MET3003
Embraer ERJ-170LR
0730 GMT
MET3005
Embraer ERJ-170LR
1730 GMT
MET3007
Embraer ERJ-170LR
2230 GMT
MET3009
Embraer ERJ-170LR
0330 GMT
MET3011
Embraer ERJ-170LR
1830 GMT
MET3013
Embraer ERJ-170LR
2330 GMT
MET3015
Embraer ERJ-170LR
0430 GMT

Popularity

Hub Current Bids PiReps this month Total PiReps
KMCI 0 0 0
KLAX 0 0 0
KBOS 0 0 1